Weather History for West Palm Beach, FL

Change the Weather History Date:

Monday, November 10, 2014

  Actual Average Record
Temperature  
Mean Temperature 70 °F 74 °F  
Max Temperature 78 °F 81 °F 88 °F (1987)
Min Temperature 62 °F 66 °F 46 °F (1991)
Degree Days  
Heating Degree Days 0 0  
Month to date heating degree days 8 0  
Since 1 July heating degree days 8 1  
Cooling Degree Days 5 9  
Month to date cooling degree days 57 95  
Year to date cooling degree days 3993 3716  
Growing Degree Days 20 (Base 50)    
Moisture  
Dew Point 63 °F    
Average Humidity 76    
Maximum Humidity 87    
Minimum Humidity 64    
Precipitation  
Precipitation 0.36 in 0.18 in 1.45 in (1904)
Month to date precipitation 0.92 1.74  
Year to date precipitation 58.51 55.94  
Snow  
Snow 0.00 in - - ()
Month to date snowfall 0.0  
Since 1 July snowfall 0.0  
Since 1 September snowfall 0.0  
Snow Depth 0.00 in    
Sea Level Pressure  
Sea Level Pressure 29.90 in    
Wind  
Wind Speed 7 mph (WNW)    
Max Wind Speed 13 mph    
Max Gust Speed 16 mph    
Visibility 9 miles    
Events Rain , Thunderstorm    
T = Trace of Precipitation, MM = Missing Value Source: NWS Daily Summary

Daily Weather History Graph

Daily Weather History Graph

Search for Another Location

Airport:

Trip Planner

Search our weather history database for the weather conditions in past years. The results will help you decide how hot, cold, wet, or windy it might be!

Date:

Astronomy

Nov. 10, 2014 Rise Set
Actual Time 6:36 AM EST 5:32 PM EST
Civil Twilight 6:11 AM EST 5:56 PM EST
Nautical Twilight 5:44 AM EST 6:24 PM EST
Astronomical Twilight 5:16 AM EST 6:51 PM EST
Moon 9:01 PM EST (11/10) 9:53 AM EST (11/10)
Length of Visible Light 11h 44m
Length of Day
10h 56m
Waning Gibbous, 85% of the Moon is Illuminated
Nov 10
Waning Gibbous
Nov 14
Last Quarter
Nov 22
New
Nov 29
First Quarter
Dec 6
Full

Hourly Weather History & Observations

Time (EST) Temp. Dew Point Humidity Pressure Visibility Wind Dir Wind Speed Gust Speed Precip Events Conditions
12:42 AM 63.0 °F 63.0 °F 100% 29.88 in 10.0 mi NW 8.1 mph - 0.00 in   Overcast
12:53 AM 63.0 °F 63.0 °F 100% 29.88 in 10.0 mi NW 8.1 mph - 0.00 in   Overcast
1:53 AM 66.9 °F 64.0 °F 90% 29.87 in 10.0 mi NW 10.4 mph - 0.03 in Rain Heavy Rain
2:37 AM 66.9 °F 64.0 °F 90% 29.88 in 8.0 mi NW 8.1 mph - 0.06 in Rain , Thunderstorm Heavy Thunderstorms and Rain
2:53 AM 64.9 °F 63.0 °F 93% 29.88 in 10.0 mi NW 5.8 mph - 0.18 in Rain , Thunderstorm Thunderstorms and Rain
3:12 AM 64.9 °F 63.0 °F 93% 29.87 in 10.0 mi WNW 5.8 mph - 0.01 in Rain Light Rain
3:53 AM 66.9 °F 62.1 °F 84% 29.88 in 10.0 mi NW 4.6 mph - 0.03 in Rain Rain
4:53 AM 66.0 °F 62.1 °F 87% 29.88 in 10.0 mi NW 8.1 mph - 0.02 in Rain Light Rain
5:53 AM 66.0 °F 63.0 °F 90% 29.90 in 10.0 mi West 5.8 mph - 0.01 in Rain Light Rain
6:21 AM 66.0 °F 63.0 °F 90% 29.89 in 10.0 mi WNW 9.2 mph - 0.00 in   Overcast
6:33 AM 66.0 °F 63.0 °F 90% 29.89 in 10.0 mi NW 8.1 mph - 0.00 in Rain Light Rain
6:53 AM 64.9 °F 63.0 °F 93% 29.92 in 6.0 mi West 6.9 mph - 0.02 in Rain Light Rain
7:21 AM 65.3 °F 62.2 °F 90% 29.90 in 6.0 mi NW 8.1 mph - 0.01 in Rain Light Rain
7:53 AM 67.1 °F 63.3 °F 88% 29.90 in 7.0 mi WNW 9.2 mph - 0.03 in Rain Light Rain
8:53 AM 68.0 °F 63.0 °F 84% 29.93 in 7.0 mi Calm Calm - 0.04 in   Mostly Cloudy
9:23 AM 68.0 °F 63.0 °F 84% 29.93 in 7.0 mi WNW 9.2 mph - 0.00 in   Mostly Cloudy
9:53 AM 68.0 °F 64.9 °F 90% 29.91 in 7.0 mi NNW 5.8 mph - 0.00 in   Mostly Cloudy
10:53 AM 69.1 °F 65.3 °F 88% 29.93 in 7.0 mi West 8.1 mph - 0.00 in   Mostly Cloudy
11:33 AM 71.1 °F 64.9 °F 81% 29.93 in 7.0 mi WNW 9.2 mph - N/A   Mostly Cloudy
11:53 AM 70.5 °F 64.8 °F 82% 29.92 in 10.0 mi WNW 9.2 mph - N/A   Overcast
12:13 PM 72.0 °F 64.9 °F 78% 29.91 in 10.0 mi WNW 9.2 mph - N/A   Overcast
12:48 PM 71.6 °F 64.4 °F 78% 29.90 in 10.0 mi Variable 6.9 mph - N/A   Scattered Clouds
12:53 PM 72.0 °F 64.0 °F 76% 29.90 in 10.0 mi NW 8.1 mph - N/A   Scattered Clouds
1:53 PM 75.0 °F 64.0 °F 69% 29.88 in 10.0 mi NW 9.2 mph - N/A   Scattered Clouds
2:53 PM 75.9 °F 64.0 °F 67% 29.87 in 10.0 mi NW 10.4 mph - N/A   Scattered Clouds
3:53 PM 77.5 °F 64.2 °F 63% 29.87 in 10.0 mi WNW 9.2 mph - N/A   Scattered Clouds
4:53 PM 75.0 °F 64.0 °F 69% 29.89 in 10.0 mi WNW 8.1 mph - N/A   Mostly Cloudy
5:53 PM 73.0 °F 64.0 °F 73% 29.90 in 10.0 mi NW 3.5 mph - N/A   Scattered Clouds
6:53 PM 72.0 °F 64.0 °F 76% 29.90 in 10.0 mi West 3.5 mph - N/A   Partly Cloudy
7:53 PM 71.1 °F 64.0 °F 78% 29.90 in 10.0 mi West 6.9 mph - N/A   Partly Cloudy
8:53 PM 69.1 °F 63.0 °F 81% 29.90 in 10.0 mi WNW 3.5 mph - N/A   Partly Cloudy
9:53 PM 68.0 °F 63.0 °F 84% 29.90 in 10.0 mi WNW 4.6 mph - N/A   Clear
10:53 PM 67.8 °F 61.5 °F 80% 29.91 in 10.0 mi NW 11.5 mph - N/A   Clear
11:53 PM 68.0 °F 62.1 °F 81% 29.90 in 10.0 mi NW 8.1 mph - N/A   Clear